LAGEOS 1 (8820 NORAD) Tracking and Keplerian Element Data

This shows tracking and keplerian element data for the satellite.

Feedback or suggestion? Click here.




ElementValue
Catalog8820
NameLAGEOS 1
Epoch Orbit74074
Epoch Day20.82480553
Epoch Year2019
RAAN332.9807
Inclination109.8593
Eccentricity0.0044605
Argument of Perigee161.4755
Mean Anonmoly21.9005
Mean Motion6.38664898
Decay Rate1E-08
L11 08820U 76039A 19020.82480553 .00000001 00000-0 00000-0 0 9991
L22 08820 109.8593 332.9807 0044605 161.4755 21.9005 6.38664898740742

Live tracking and technical data element details for LAGEOS 1 (NORAD 8820). LAGEOS 1 can be tracked NOW for your location showing map with azimuth and elevation plus other details from your city location.

Track the satellite on the map from your city or location and see movement details for azimuth, elevation, latitude, longitude, range, height, and movement on the map or in text.







IsCatalogInMostPopularTable: catalog: 8820, numindb: 63
Update: records affected: 1



GetName: 8820 LAGEOS 1

Hit Count: updated at: Mon, 21 Jan 2019 17:32:31 GMT